STARLINK-1677, 46576

Orbit data source: Space-Track

STARLINK-1677, 46576 is a payload satellite owned by SpaceX/Seattle (US) in LEO that was launched on Tue, 06 Oct 2020 UTC via an FALCON 9 launch vehicle from the Air Force Eastern Test Range (AFETR). Payload-class satellites include a variety of spacecraft equipped with specific instruments for various scientific and technological missions. These include communications satellites like Starlink; space stations such as the ISS; scientific satellites like the Hubble; Earth observation satellites from companies like Planet Labs, Umbra, and HawkEye 360; GPS; miniature CubeSats for education and research; and military/defense satellites.

Loading next visibility...
Identifier
46576, 2020-070AW
Orbit
LEO
Last TLE update
13 hours ago
Origin
Manufacturer
SpaceX/Seattle
Mission
Operational Commercial Communications
Bus & Motor
STARLINK, Unknown motor
Mass
260 kg wet, ~248 kg dry
Launch date (UTC)
2020-10-06 (5 years ago)
Launch vehicle
FALCON 9
Launch site
Air Force Eastern Test Range (AFETR)
Object type
Payload
Rocket body
Debris
Shape & HBR
Box + 1 Pan, 8.86 m
Radar Cross Section
13.562 m², Large (>1 m²)

Expand to show TLE details & history

TLE from 13 hours ago
0 STARLINK-1677
1 46576U 20070AW  25187.38145831  .00000129  00000-0  27520-4 0  9995
2 46576  53.0538 187.3425 0001133  79.4825 280.6291 15.06397032262595
Epoch: 2025-07-06T09:09Z
TLE epoch observation values (Epoch: 2025-07-06T09:09:17.997Z)
Latitude
-0.00009°
Longitude
125.41148°
Altitude
547.955 km
Speed
7.589 km/s
True Right ascension
12h 29m 22s
True Declination
0° 00' 00"
Sunlit
Object was in daylight at epoch
Visualization orbit readout
Latitude
28.6513°
Longitude
-81.21171°
Altitude
548.326 km
Speed
7.592 km/s
Apparent Right ascension
22h 37m 54s
Apparent Declination
-4° 00' 04"
Sunlit
Object is in daylight
Visualization observer readout
Local Sidereal Time
10:31:44
Azimuth
357.38° N
Elevation
-54.058°
Doppler factor
1
Orbital elements
Apogee altitude
548.276 km
Perigee altitude
546.707 km
Semi-major axis
6,925.628 km
Eccentricity
0.00011
Inclination
53.0538°
RAAN
187.3425°
Arg. of periapsis
79.4825°
True anomaly
Unknown
Mean anomaly
280.6291°
Eccentric anomaly
Unknown
Mean motion
3.76578 °/min
Orbital period
95.6 mins
BSTAR
0.00002752
Loading maneuver chart data...
Loading SW <> Apogee altitude chart data...
Loading historical data...
Loading historical data...
Loading historical data...
Loading historical data...
Loading historical data...
Loading historical data...
Loading historical data...

STARLINK-1677 Visibility forecast

Observer location: undefined°, undefined°

Span
Click to sort rows by Start time (UTC) header in descending order
Start Az.
Max El. time (UTC)
Max El. Az.
Max El.
End time (UTC)
End Az.
6 mins2025-07-07 02:51:35.977Z232.202° WSW2025-07-07 02:54:35.977Z356.805° N44.783°2025-07-07 02:57:35.977Z48.526° ENE
5 mins2025-07-07 04:32:35.977Z303.513° NW2025-07-07 04:34:35.977Z340.648° N19.229°2025-07-07 04:37:35.977Z28.264° NE
4 mins2025-07-07 07:54:35.977Z351.867° N2025-07-07 07:56:35.977Z32.759° NE19.862°2025-07-07 07:58:35.977Z66.329° ENE
6 mins2025-07-07 09:33:35.977Z308.483° NW2025-07-07 09:35:35.977Z300.777° NW43.036°2025-07-07 09:39:35.977Z132.643° SE
|